Wetterdaten: Mittwoch, 16.03.2016
Datum Zeit Temperatur Luftfeuchte Luftdruck Regen Wind Richtung Richtung Sonnenschein ET UV Solar Taupunkt Windchill Windben
16.03.2016 00:00 3,5 C 79 % 1026,7 hPa 0,0 l/m 6,2 km/h (2 Bft) O-NO 69 0 min 0,000 mm 0,0 UV-I 0 W/m 0,2 C 3,5 C 14,5 km/h (3 Bft)
16.03.2016 00:05 3,4 C 77 % 1026,7 hPa 0,0 l/m 8,3 km/h (2 Bft) N-NO 18 0 min 0,000 mm 0,0 UV-I 0 W/m -0,2 C 1,7 C 24,1 km/h (4 Bft)
16.03.2016 00:10 3,4 C 76 % 1026,7 hPa 0,0 l/m 7,0 km/h (2 Bft) O-SO 105 0 min 0,000 mm 0,0 UV-I 0 W/m -0,4 C 2,8 C 19,3 km/h (3 Bft)
16.03.2016 00:15 3,3 C 76 % 1026,7 hPa 0,0 l/m 6,0 km/h (2 Bft) NO 53 0 min 0,000 mm 0,0 UV-I 0 W/m -0,5 C 3,3 C 16,1 km/h (3 Bft)
16.03.2016 00:20 3,3 C 76 % 1026,6 hPa 0,0 l/m 1,6 km/h (1 Bft) NO 56 0 min 0,000 mm 0,0 UV-I 0 W/m -0,5 C 3,3 C 11,3 km/h (2 Bft)
16.03.2016 00:25 3,3 C 74 % 1026,6 hPa 0,0 l/m 3,3 km/h (1 Bft) O-NO 78 0 min 0,000 mm 0,0 UV-I 0 W/m -0,9 C 3,3 C 11,3 km/h (2 Bft)
16.03.2016 00:30 3,3 C 74 % 1026,7 hPa 0,0 l/m 1,4 km/h (1 Bft) NO 47 0 min 0,000 mm 0,0 UV-I 0 W/m -0,9 C 3,3 C 8,0 km/h (2 Bft)
16.03.2016 00:35 3,3 C 73 % 1026,6 hPa 0,0 l/m 4,3 km/h (1 Bft) NO 55 0 min 0,000 mm 0,0 UV-I 0 W/m -1,1 C 3,3 C 14,5 km/h (3 Bft)
16.03.2016 00:40 3,3 C 72 % 1026,7 hPa 0,0 l/m 7,5 km/h (2 Bft) O-NO 57 0 min 0,000 mm 0,0 UV-I 0 W/m -1,3 C 2,3 C 19,3 km/h (3 Bft)
16.03.2016 00:45 3,3 C 72 % 1026,7 hPa 0,0 l/m 6,2 km/h (2 Bft) NO 55 0 min 0,000 mm 0,0 UV-I 0 W/m -1,3 C 3,3 C 16,1 km/h (3 Bft)
16.03.2016 00:50 3,3 C 72 % 1026,7 hPa 0,0 l/m 2,0 km/h (1 Bft) NO 40 0 min 0,000 mm 0,0 UV-I 0 W/m -1,3 C 3,3 C 9,7 km/h (2 Bft)
16.03.2016 00:55 3,3 C 71 % 1026,7 hPa 0,0 l/m 7,0 km/h (2 Bft) O-NO 61 0 min 0,000 mm 0,0 UV-I 0 W/m -1,4 C 2,7 C 16,1 km/h (3 Bft)
16.03.2016 01:00 3,3 C 71 % 1026,7 hPa 0,0 l/m 4,4 km/h (1 Bft) O-NO 66 0 min 0,000 mm 0,0 UV-I 0 W/m -1,4 C 3,3 C 16,1 km/h (3 Bft)
16.03.2016 01:05 3,3 C 71 % 1026,8 hPa 0,0 l/m 5,6 km/h (1 Bft) NO 51 0 min 0,025 mm 0,0 UV-I 0 W/m -1,4 C 3,3 C 20,9 km/h (4 Bft)
16.03.2016 01:10 3,2 C 71 % 1026,9 hPa 0,0 l/m 3,3 km/h (1 Bft) NO 44 0 min 0,000 mm 0,0 UV-I 0 W/m -1,5 C 3,2 C 16,1 km/h (3 Bft)
16.03.2016 01:15 3,2 C 71 % 1026,8 hPa 0,0 l/m 7,8 km/h (2 Bft) NO 36 0 min 0,000 mm 0,0 UV-I 0 W/m -1,5 C 1,9 C 24,1 km/h (4 Bft)
16.03.2016 01:20 3,2 C 71 % 1026,8 hPa 0,0 l/m 5,2 km/h (1 Bft) O-NO 78 0 min 0,000 mm 0,0 UV-I 0 W/m -1,5 C 3,2 C 22,5 km/h (4 Bft)
16.03.2016 01:25 3,2 C 71 % 1026,8 hPa 0,0 l/m 2,5 km/h (1 Bft) O-NO 73 0 min 0,000 mm 0,0 UV-I 0 W/m -1,5 C 3,2 C 20,9 km/h (4 Bft)
16.03.2016 01:30 3,2 C 71 % 1026,7 hPa 0,0 l/m 3,8 km/h (1 Bft) O-NO 59 0 min 0,000 mm 0,0 UV-I 0 W/m -1,5 C 3,2 C 12,9 km/h (3 Bft)
16.03.2016 01:35 3,2 C 71 % 1026,9 hPa 0,0 l/m 3,2 km/h (1 Bft) O-NO 57 0 min 0,000 mm 0,0 UV-I 0 W/m -1,5 C 3,2 C 12,9 km/h (3 Bft)
16.03.2016 01:40 3,2 C 72 % 1026,7 hPa 0,0 l/m 3,6 km/h (1 Bft) NO 36 0 min 0,000 mm 0,0 UV-I 0 W/m -1,3 C 3,2 C 12,9 km/h (3 Bft)
16.03.2016 01:45 3,2 C 72 % 1026,8 hPa 0,0 l/m 5,3 km/h (1 Bft) O-NO 69 0 min 0,000 mm 0,0 UV-I 0 W/m -1,3 C 3,2 C 16,1 km/h (3 Bft)
16.03.2016 01:50 3,2 C 72 % 1026,9 hPa 0,0 l/m 9,4 km/h (2 Bft) N-NO 30 0 min 0,000 mm 0,0 UV-I 0 W/m -1,3 C 0,5 C 19,3 km/h (3 Bft)
16.03.2016 01:55 3,1 C 73 % 1026,9 hPa 0,0 l/m 5,0 km/h (1 Bft) NO 34 0 min 0,000 mm 0,0 UV-I 0 W/m -1,3 C 3,1 C 12,9 km/h (3 Bft)
16.03.2016 02:00 3,1 C 73 % 1026,9 hPa 0,0 l/m 3,5 km/h (1 Bft) N 360 0 min 0,000 mm 0,0 UV-I 0 W/m -1,3 C 3,1 C 12,9 km/h (3 Bft)
16.03.2016 02:05 3,1 C 73 % 1026,8 hPa 0,0 l/m 5,8 km/h (2 Bft) NO 47 0 min 0,026 mm 0,0 UV-I 0 W/m -1,3 C 3,1 C 16,1 km/h (3 Bft)
16.03.2016 02:10 3,1 C 74 % 1026,7 hPa 0,0 l/m 7,1 km/h (2 Bft) O-NO 61 0 min 0,000 mm 0,0 UV-I 0 W/m -1,1 C 2,4 C 17,7 km/h (3 Bft)
16.03.2016 02:15 3,1 C 73 % 1026,7 hPa 0,0 l/m 4,2 km/h (1 Bft) N 5 0 min 0,000 mm 0,0 UV-I 0 W/m -1,3 C 3,1 C 17,7 km/h (3 Bft)
16.03.2016 02:20 3,1 C 74 % 1026,7 hPa 0,0 l/m 8,6 km/h (2 Bft) O-NO 59 0 min 0,000 mm 0,0 UV-I 0 W/m -1,1 C 1,1 C 16,1 km/h (3 Bft)
16.03.2016 02:25 3,0 C 74 % 1026,6 hPa 0,0 l/m 3,8 km/h (1 Bft) NO 37 0 min 0,000 mm 0,0 UV-I 0 W/m -1,2 C 3,0 C 17,7 km/h (3 Bft)
16.03.2016 02:30 3,0 C 74 % 1026,5 hPa 0,0 l/m 6,6 km/h (2 Bft) NO 50 0 min 0,000 mm 0,0 UV-I 0 W/m -1,2 C 2,8 C 17,7 km/h (3 Bft)
16.03.2016 02:35 3,0 C 73 % 1026,6 hPa 0,0 l/m 6,0 km/h (2 Bft) NO 53 0 min 0,000 mm 0,0 UV-I 0 W/m -1,4 C 3,0 C 17,7 km/h (3 Bft)
16.03.2016 02:40 2,9 C 74 % 1026,7 hPa 0,0 l/m 6,1 km/h (2 Bft) O 80 0 min 0,000 mm 0,0 UV-I 0 W/m -1,3 C 2,9 C 12,9 km/h (3 Bft)
16.03.2016 02:45 3,0 C 74 % 1026,6 hPa 0,0 l/m 9,2 km/h (2 Bft) N-NO 33 0 min 0,000 mm 0,0 UV-I 0 W/m -1,2 C 0,5 C 19,3 km/h (3 Bft)
16.03.2016 02:50 2,9 C 73 % 1026,7 hPa 0,0 l/m 8,7 km/h (2 Bft) O-NO 64 0 min 0,000 mm 0,0 UV-I 0 W/m -1,5 C 0,8 C 16,1 km/h (3 Bft)
16.03.2016 02:55 3,0 C 72 % 1026,6 hPa 0,0 l/m 11,6 km/h (2 Bft) O-NO 57 0 min 0,000 mm 0,0 UV-I 0 W/m -1,5 C -1,3 C 24,1 km/h (4 Bft)
16.03.2016 03:00 3,0 C 73 % 1026,6 hPa 0,0 l/m 8,1 km/h (2 Bft) NO 51 0 min 0,000 mm 0,0 UV-I 0 W/m -1,4 C 1,4 C 20,9 km/h (4 Bft)
16.03.2016 03:05 2,9 C 72 % 1026,6 hPa 0,0 l/m 8,2 km/h (2 Bft) O-NO 67 0 min 0,025 mm 0,0 UV-I 0 W/m -1,6 C 1,2 C 20,9 km/h (4 Bft)
16.03.2016 03:10 2,9 C 72 % 1026,7 hPa 0,0 l/m 8,5 km/h (2 Bft) O-NO 74 0 min 0,000 mm 0,0 UV-I 0 W/m -1,6 C 1,0 C 17,7 km/h (3 Bft)
16.03.2016 03:15 2,9 C 73 % 1026,6 hPa 0,0 l/m 6,1 km/h (2 Bft) NO 53 0 min 0,000 mm 0,0 UV-I 0 W/m -1,5 C 2,9 C 17,7 km/h (3 Bft)
16.03.2016 03:20 2,9 C 72 % 1026,6 hPa 0,0 l/m 10,8 km/h (2 Bft) O-NO 71 0 min 0,000 mm 0,0 UV-I 0 W/m -1,6 C -0,8 C 22,5 km/h (4 Bft)
16.03.2016 03:25 2,9 C 72 % 1026,6 hPa 0,0 l/m 8,3 km/h (2 Bft) O-NO 71 0 min 0,000 mm 0,0 UV-I 0 W/m -1,6 C 1,1 C 17,7 km/h (3 Bft)
16.03.2016 03:30 2,9 C 73 % 1026,6 hPa 0,0 l/m 5,6 km/h (1 Bft) NO 42 0 min 0,000 mm 0,0 UV-I 0 W/m -1,5 C 2,9 C 20,9 km/h (4 Bft)
16.03.2016 03:35 2,9 C 73 % 1026,6 hPa 0,0 l/m 6,2 km/h (2 Bft) NO 44 0 min 0,000 mm 0,0 UV-I 0 W/m -1,5 C 2,9 C 19,3 km/h (3 Bft)
16.03.2016 03:40 2,9 C 73 % 1026,5 hPa 0,0 l/m 1,7 km/h (1 Bft) N-NO 30 0 min 0,000 mm 0,0 UV-I 0 W/m -1,5 C 2,9 C 11,3 km/h (2 Bft)
16.03.2016 03:45 2,9 C 73 % 1026,5 hPa 0,0 l/m 3,6 km/h (1 Bft) N-NO 33 0 min 0,000 mm 0,0 UV-I 0 W/m -1,5 C 2,9 C 19,3 km/h (3 Bft)
16.03.2016 03:50 2,9 C 73 % 1026,5 hPa 0,0 l/m 10,1 km/h (2 Bft) O 82 0 min 0,000 mm 0,0 UV-I 0 W/m -1,5 C -0,3 C 22,5 km/h (4 Bft)
16.03.2016 03:55 2,9 C 73 % 1026,5 hPa 0,0 l/m 8,4 km/h (2 Bft) W-NW 300 0 min 0,000 mm 0,0 UV-I 0 W/m -1,5 C 1,0 C 22,5 km/h (4 Bft)
16.03.2016 04:00 2,9 C 73 % 1026,5 hPa 0,0 l/m 7,8 km/h (2 Bft) N-NO 24 0 min 0,000 mm 0,0 UV-I 0 W/m -1,5 C 1,6 C 17,7 km/h (3 Bft)
16.03.2016 04:05 2,9 C 73 % 1026,5 hPa 0,0 l/m 4,4 km/h (1 Bft) O-NO 63 0 min 0,026 mm 0,0 UV-I 0 W/m -1,5 C 2,9 C 12,9 km/h (3 Bft)
16.03.2016 04:10 2,9 C 73 % 1026,5 hPa 0,0 l/m 10,1 km/h (2 Bft) NO 40 0 min 0,000 mm 0,0 UV-I 0 W/m -1,5 C -0,3 C 24,1 km/h (4 Bft)
16.03.2016 04:15 2,9 C 73 % 1026,5 hPa 0,0 l/m 6,9 km/h (2 Bft) O-NO 64 0 min 0,000 mm 0,0 UV-I 0 W/m -1,5 C 2,4 C 22,5 km/h (4 Bft)
16.03.2016 04:20 2,9 C 73 % 1026,4 hPa 0,0 l/m 8,6 km/h (2 Bft) NO 46 0 min 0,000 mm 0,0 UV-I 0 W/m -1,5 C 0,9 C 20,9 km/h (4 Bft)
16.03.2016 04:25 2,9 C 73 % 1026,4 hPa 0,0 l/m 11,6 km/h (2 Bft) O-SO 111 0 min 0,000 mm 0,0 UV-I 0 W/m -1,5 C -1,4 C 27,4 km/h (4 Bft)
16.03.2016 04:30 2,8 C 74 % 1026,4 hPa 0,0 l/m 8,6 km/h (2 Bft) NO 50 0 min 0,000 mm 0,0 UV-I 0 W/m -1,4 C 0,8 C 20,9 km/h (4 Bft)
16.03.2016 04:35 2,8 C 74 % 1026,4 hPa 0,0 l/m 11,9 km/h (2 Bft) O-NO 61 0 min 0,000 mm 0,0 UV-I 0 W/m -1,4 C -1,7 C 22,5 km/h (4 Bft)
16.03.2016 04:40 2,8 C 74 % 1026,3 hPa 0,0 l/m 8,6 km/h (2 Bft) NO 37 0 min 0,000 mm 0,0 UV-I 0 W/m -1,4 C 0,8 C 24,1 km/h (4 Bft)
16.03.2016 04:45 2,8 C 74 % 1026,3 hPa 0,0 l/m 7,1 km/h (2 Bft) NO 52 0 min 0,000 mm 0,0 UV-I 0 W/m -1,4 C 2,1 C 20,9 km/h (4 Bft)
16.03.2016 04:50 2,8 C 73 % 1026,4 hPa 0,0 l/m 10,0 km/h (2 Bft) O 80 0 min 0,000 mm 0,0 UV-I 0 W/m -1,5 C -0,4 C 19,3 km/h (3 Bft)
16.03.2016 04:55 2,8 C 72 % 1026,3 hPa 0,0 l/m 13,0 km/h (3 Bft) O-NO 69 0 min 0,000 mm 0,0 UV-I 0 W/m -1,7 C -2,4 C 27,4 km/h (4 Bft)
16.03.2016 05:00 2,7 C 71 % 1026,4 hPa 0,0 l/m 8,1 km/h (2 Bft) N 360 0 min 0,025 mm 0,0 UV-I 0 W/m -2,0 C 1,1 C 20,9 km/h (4 Bft)
16.03.2016 05:05 2,6 C 71 % 1026,4 hPa 0,0 l/m 12,5 km/h (3 Bft) O-NO 61 0 min 0,000 mm 0,0 UV-I 0 W/m -2,1 C -2,3 C 27,4 km/h (4 Bft)
16.03.2016 05:10 2,4 C 71 % 1026,4 hPa 0,0 l/m 11,4 km/h (2 Bft) NO 38 0 min 0,000 mm 0,0 UV-I 0 W/m -2,3 C -1,8 C 27,4 km/h (4 Bft)
16.03.2016 05:15 2,4 C 72 % 1026,4 hPa 0,0 l/m 6,6 km/h (2 Bft) N-NO 26 0 min 0,000 mm 0,0 UV-I 0 W/m -2,1 C 2,2 C 20,9 km/h (4 Bft)
16.03.2016 05:20 2,3 C 71 % 1026,3 hPa 0,0 l/m 12,9 km/h (3 Bft) NO 47 0 min 0,000 mm 0,0 UV-I 0 W/m -2,4 C -2,9 C 29,0 km/h (5 Bft)
16.03.2016 05:25 2,2 C 72 % 1026,3 hPa 0,0 l/m 10,0 km/h (2 Bft) O-SO 106 0 min 0,000 mm 0,0 UV-I 0 W/m -2,3 C -1,0 C 22,5 km/h (4 Bft)
16.03.2016 05:30 2,2 C 72 % 1026,4 hPa 0,0 l/m 10,0 km/h (2 Bft) N-NO 19 0 min 0,000 mm 0,0 UV-I 0 W/m -2,3 C -1,0 C 22,5 km/h (4 Bft)
16.03.2016 05:35 2,1 C 72 % 1026,4 hPa 0,0 l/m 9,3 km/h (2 Bft) O-NO 73 0 min 0,000 mm 0,0 UV-I 0 W/m -2,4 C -0,6 C 17,7 km/h (3 Bft)
16.03.2016 05:40 2,1 C 73 % 1026,5 hPa 0,0 l/m 11,5 km/h (2 Bft) N-NO 24 0 min 0,000 mm 0,0 UV-I 0 W/m -2,2 C -2,2 C 27,4 km/h (4 Bft)
16.03.2016 05:45 2,1 C 73 % 1026,5 hPa 0,0 l/m 12,6 km/h (3 Bft) N 9 0 min 0,000 mm 0,0 UV-I 0 W/m -2,2 C -3,0 C 27,4 km/h (4 Bft)
16.03.2016 05:50 2,0 C 73 % 1026,6 hPa 0,0 l/m 9,4 km/h (2 Bft) NO 55 0 min 0,000 mm 0,0 UV-I 0 W/m -2,3 C -0,8 C 20,9 km/h (4 Bft)
16.03.2016 05:55 1,9 C 74 % 1026,5 hPa 0,0 l/m 7,7 km/h (2 Bft) O-NO 74 0 min 0,000 mm 0,0 UV-I 0 W/m -2,2 C 0,6 C 19,3 km/h (3 Bft)
16.03.2016 06:00 1,9 C 74 % 1026,5 hPa 0,0 l/m 13,5 km/h (3 Bft) O-NO 67 0 min 0,000 mm 0,0 UV-I 0 W/m -2,2 C -3,8 C 29,0 km/h (5 Bft)
16.03.2016 06:05 1,9 C 74 % 1026,6 hPa 0,0 l/m 9,6 km/h (2 Bft) O 81 0 min 0,025 mm 0,0 UV-I 0 W/m -2,2 C -1,0 C 24,1 km/h (4 Bft)
16.03.2016 06:10 1,8 C 74 % 1026,7 hPa 0,0 l/m 4,8 km/h (1 Bft) O-NO 74 0 min 0,000 mm 0,0 UV-I 0 W/m -2,3 C 1,8 C 19,3 km/h (3 Bft)
16.03.2016 06:15 1,7 C 75 % 1026,7 hPa 0,0 l/m 7,4 km/h (2 Bft) N-NW 336 0 min 0,000 mm 0,0 UV-I 0 W/m -2,2 C 0,7 C 17,7 km/h (3 Bft)
16.03.2016 06:20 1,7 C 75 % 1026,7 hPa 0,0 l/m 6,3 km/h (2 Bft) N-NW 335 0 min 0,000 mm 0,0 UV-I 0 W/m -2,2 C 1,7 C 22,5 km/h (4 Bft)
16.03.2016 06:25 1,7 C 75 % 1026,8 hPa 0,0 l/m 6,2 km/h (2 Bft) NO 48 0 min 0,000 mm 0,0 UV-I 0 W/m -2,2 C 1,7 C 16,1 km/h (3 Bft)
16.03.2016 06:30 1,7 C 75 % 1026,7 hPa 0,0 l/m 5,7 km/h (1 Bft) NO 47 0 min 0,000 mm 0,0 UV-I 0 W/m -2,2 C 1,7 C 12,9 km/h (3 Bft)
16.03.2016 06:35 1,6 C 75 % 1026,8 hPa 0,0 l/m 9,4 km/h (2 Bft) O 83 0 min 0,000 mm 0,0 UV-I 0 W/m -2,3 C -1,2 C 17,7 km/h (3 Bft)
16.03.2016 06:40 1,6 C 76 % 1026,9 hPa 0,0 l/m 9,2 km/h (2 Bft) O-NO 66 0 min 0,000 mm 0,0 UV-I 1 W/m -2,2 C -1,0 C 16,1 km/h (3 Bft)
16.03.2016 06:45 1,6 C 76 % 1026,9 hPa 0,0 l/m 6,7 km/h (2 Bft) O-NO 62 0 min 0,000 mm 0,0 UV-I 6 W/m -2,2 C 1,3 C 19,3 km/h (3 Bft)
16.03.2016 06:50 1,7 C 76 % 1027,0 hPa 0,0 l/m 8,8 km/h (2 Bft) O-NO 61 0 min 0,000 mm 0,0 UV-I 8 W/m -2,1 C -0,6 C 22,5 km/h (4 Bft)
16.03.2016 06:55 1,8 C 76 % 1027,1 hPa 0,0 l/m 13,8 km/h (3 Bft) O-NO 66 0 min 0,000 mm 0,0 UV-I 12 W/m -2,0 C -4,1 C 30,6 km/h (5 Bft)
16.03.2016 07:00 1,8 C 75 % 1027,2 hPa 0,0 l/m 12,0 km/h (2 Bft) O-NO 57 0 min 0,000 mm 0,0 UV-I 17 W/m -2,1 C -2,9 C 25,7 km/h (4 Bft)
16.03.2016 07:05 1,8 C 75 % 1027,2 hPa 0,0 l/m 9,1 km/h (2 Bft) O-NO 59 0 min 0,026 mm 0,0 UV-I 21 W/m -2,1 C -0,7 C 22,5 km/h (4 Bft)
16.03.2016 07:10 1,9 C 76 % 1027,2 hPa 0,0 l/m 10,6 km/h (2 Bft) O-NO 59 0 min 0,000 mm 0,0 UV-I 25 W/m -1,9 C -1,8 C 24,1 km/h (4 Bft)
16.03.2016 07:15 2,1 C 75 % 1027,2 hPa 0,0 l/m 10,4 km/h (2 Bft) O-NO 60 0 min 0,000 mm 0,0 UV-I 29 W/m -1,9 C -1,4 C 17,7 km/h (3 Bft)
16.03.2016 07:20 2,1 C 75 % 1027,2 hPa 0,0 l/m 12,0 km/h (2 Bft) O-NO 57 0 min 0,000 mm 0,0 UV-I 34 W/m -1,9 C -2,6 C 25,7 km/h (4 Bft)
16.03.2016 07:25 2,2 C 75 % 1027,3 hPa 0,0 l/m 14,3 km/h (3 Bft) O-NO 76 0 min 0,000 mm 0,0 UV-I 39 W/m -1,8 C -3,9 C 27,4 km/h (4 Bft)
16.03.2016 07:30 2,3 C 75 % 1027,3 hPa 0,0 l/m 10,8 km/h (2 Bft) O 98 0 min 0,000 mm 0,0 UV-I 49 W/m -1,7 C -1,5 C 22,5 km/h (4 Bft)
16.03.2016 07:35 2,3 C 75 % 1027,3 hPa 0,0 l/m 10,6 km/h (2 Bft) N 355 0 min 0,000 mm 0,0 UV-I 64 W/m -1,7 C -1,4 C 17,7 km/h (3 Bft)
16.03.2016 07:40 2,4 C 75 % 1027,3 hPa 0,0 l/m 7,2 km/h (2 Bft) NO 52 0 min 0,000 mm 0,0 UV-I 82 W/m -1,6 C 1,6 C 19,3 km/h (3 Bft)
16.03.2016 07:45 2,7 C 75 % 1027,3 hPa 0,0 l/m 7,2 km/h (2 Bft) O-NO 64 5 min 0,000 mm 0,0 UV-I 99 W/m -1,3 C 1,9 C 19,3 km/h (3 Bft)
16.03.2016 07:50 2,8 C 74 % 1027,3 hPa 0,0 l/m 13,2 km/h (3 Bft) O 84 0 min 0,000 mm 0,0 UV-I 100 W/m -1,4 C -2,5 C 29,0 km/h (5 Bft)
16.03.2016 07:55 2,8 C 74 % 1027,3 hPa 0,0 l/m 8,8 km/h (2 Bft) O-NO 59 0 min 0,000 mm 0,0 UV-I 105 W/m -1,4 C 0,6 C 19,3 km/h (3 Bft)
16.03.2016 08:00 2,9 C 74 % 1027,4 hPa 0,0 l/m 12,9 km/h (3 Bft) O-NO 65 0 min 0,000 mm 0,0 UV-I 106 W/m -1,3 C -2,2 C 22,5 km/h (4 Bft)
16.03.2016 08:05 3,0 C 74 % 1027,4 hPa 0,0 l/m 8,4 km/h (2 Bft) NO 50 0 min 0,051 mm 0,0 UV-I 120 W/m -1,2 C 1,2 C 22,5 km/h (4 Bft)
16.03.2016 08:10 3,2 C 74 % 1027,4 hPa 0,0 l/m 8,6 km/h (2 Bft) NO 54 0 min 0,000 mm 0,0 UV-I 127 W/m -1,0 C 1,2 C 19,3 km/h (3 Bft)
16.03.2016 08:15 3,2 C 73 % 1027,4 hPa 0,0 l/m 12,3 km/h (3 Bft) NO 51 0 min 0,000 mm 0,2 UV-I 118 W/m -1,2 C -1,5 C 25,7 km/h (4 Bft)
16.03.2016 08:20 3,3 C 73 % 1027,5 hPa 0,0 l/m 10,3 km/h (2 Bft) O-NO 62 5 min 0,000 mm 0,5 UV-I 155 W/m -1,1 C -0,0 C 30,6 km/h (5 Bft)
16.03.2016 08:25 3,4 C 72 % 1027,5 hPa 0,0 l/m 11,9 km/h (2 Bft) O-NO 60 0 min 0,000 mm 0,5 UV-I 121 W/m -1,2 C -1,0 C 20,9 km/h (4 Bft)
16.03.2016 08:30 3,2 C 73 % 1027,7 hPa 0,0 l/m 11,3 km/h (2 Bft) O-SO 103 0 min 0,000 mm 0,3 UV-I 78 W/m -1,2 C -0,8 C 25,7 km/h (4 Bft)
16.03.2016 08:35 3,1 C 74 % 1027,7 hPa 0,0 l/m 6,0 km/h (2 Bft) O 87 0 min 0,000 mm 0,0 UV-I 44 W/m -1,1 C 3,1 C 16,1 km/h (3 Bft)
16.03.2016 08:40 3,0 C 74 % 1027,8 hPa 0,0 l/m 6,4 km/h (2 Bft) NO 43 0 min 0,000 mm 0,0 UV-I 44 W/m -1,2 C 3,0 C 17,7 km/h (3 Bft)
16.03.2016 08:45 3,0 C 74 % 1027,7 hPa 0,0 l/m 12,1 km/h (2 Bft) O-NO 58 0 min 0,000 mm 0,0 UV-I 51 W/m -1,2 C -1,6 C 25,7 km/h (4 Bft)
16.03.2016 08:50 3,0 C 74 % 1027,8 hPa 0,0 l/m 13,7 km/h (3 Bft) O-NO 59 0 min 0,000 mm 0,0 UV-I 68 W/m -1,2 C -2,6 C 24,1 km/h (4 Bft)
16.03.2016 08:55 3,0 C 74 % 1027,8 hPa 0,0 l/m 16,5 km/h (3 Bft) O-NO 65 0 min 0,000 mm 0,0 UV-I 50 W/m -1,2 C -4,1 C 30,6 km/h (5 Bft)
16.03.2016 09:00 2,9 C 74 % 1027,8 hPa 0,0 l/m 15,2 km/h (3 Bft) N-NO 28 0 min 0,000 mm 0,0 UV-I 42 W/m -1,3 C -3,6 C 25,7 km/h (4 Bft)
16.03.2016 09:05 2,9 C 75 % 1027,9 hPa 0,0 l/m 8,8 km/h (2 Bft) NO 53 0 min 0,050 mm 0,0 UV-I 40 W/m -1,1 C 0,7 C 16,1 km/h (3 Bft)
16.03.2016 09:10 2,9 C 75 % 1027,9 hPa 0,0 l/m 11,1 km/h (2 Bft) NO 49 0 min 0,000 mm 0,0 UV-I 56 W/m -1,1 C -1,0 C 22,5 km/h (4 Bft)
16.03.2016 09:15 2,9 C 75 % 1027,9 hPa 0,0 l/m 6,4 km/h (2 Bft) O 80 0 min 0,000 mm 0,5 UV-I 107 W/m -1,1 C 2,9 C 24,1 km/h (4 Bft)
16.03.2016 09:20 3,0 C 74 % 1027,9 hPa 0,0 l/m 9,8 km/h (2 Bft) O 80 0 min 0,000 mm 0,5 UV-I 116 W/m -1,2 C 0,0 C 22,5 km/h (4 Bft)
16.03.2016 09:25 3,1 C 74 % 1027,9 hPa 0,0 l/m 9,4 km/h (2 Bft) NO 54 0 min 0,000 mm 0,5 UV-I 106 W/m -1,1 C 0,4 C 27,4 km/h (4 Bft)
16.03.2016 09:30 3,1 C 74 % 1028,0 hPa 0,0 l/m 13,7 km/h (3 Bft) O-NO 65 0 min 0,000 mm 0,5 UV-I 96 W/m -1,1 C -2,5 C 22,5 km/h (4 Bft)
16.03.2016 09:35 3,2 C 74 % 1028,0 hPa 0,0 l/m 11,6 km/h (2 Bft) NO 39 0 min 0,000 mm 0,5 UV-I 86 W/m -1,0 C -1,1 C 24,1 km/h (4 Bft)
16.03.2016 09:40 3,2 C 73 % 1028,0 hPa 0,0 l/m 14,9 km/h (3 Bft) O-NO 78 0 min 0,000 mm 0,5 UV-I 96 W/m -1,2 C -3,0 C 29,0 km/h (5 Bft)
16.03.2016 09:45 3,2 C 73 % 1028,1 hPa 0,0 l/m 15,7 km/h (3 Bft) O 88 0 min 0,000 mm 0,6 UV-I 106 W/m -1,2 C -3,5 C 25,7 km/h (4 Bft)
16.03.2016 09:50 3,2 C 73 % 1028,0 hPa 0,0 l/m 13,0 km/h (3 Bft) O-NO 67 0 min 0,000 mm 0,6 UV-I 102 W/m -1,2 C -1,9 C 35,4 km/h (5 Bft)
16.03.2016 09:55 3,2 C 73 % 1028,0 hPa 0,0 l/m 18,2 km/h (3 Bft) NO 51 0 min 0,000 mm 0,6 UV-I 119 W/m -1,2 C -4,7 C 32,2 km/h (5 Bft)
16.03.2016 10:00 3,3 C 73 % 1028,1 hPa 0,0 l/m 10,4 km/h (2 Bft) N 10 0 min 0,000 mm 0,7 UV-I 161 W/m -1,1 C -0,1 C 22,5 km/h (4 Bft)
16.03.2016 10:05 3,7 C 73 % 1028,1 hPa 0,0 l/m 9,1 km/h (2 Bft) O 81 0 min 0,051 mm 1,0 UV-I 254 W/m -0,7 C 1,3 C 22,5 km/h (4 Bft)
16.03.2016 10:10 4,1 C 71 % 1028,1 hPa 0,0 l/m 11,0 km/h (2 Bft) O-NO 61 5 min 0,000 mm 1,1 UV-I 280 W/m -0,7 C 0,4 C 22,5 km/h (4 Bft)
16.03.2016 10:15 4,3 C 71 % 1028,0 hPa 0,0 l/m 14,8 km/h (3 Bft) NO 51 5 min 0,000 mm 1,3 UV-I 351 W/m -0,5 C -1,7 C 29,0 km/h (5 Bft)
16.03.2016 10:20 4,7 C 69 % 1028,1 hPa 0,0 l/m 10,7 km/h (2 Bft) NW 323 5 min 0,000 mm 1,3 UV-I 374 W/m -0,5 C 1,3 C 22,5 km/h (4 Bft)
16.03.2016 10:25 4,6 C 69 % 1028,2 hPa 0,0 l/m 12,4 km/h (3 Bft) O-NO 59 0 min 0,000 mm 1,2 UV-I 222 W/m -0,6 C 0,1 C 29,0 km/h (5 Bft)
16.03.2016 10:30 4,2 C 69 % 1028,1 hPa 0,0 l/m 16,0 km/h (3 Bft) NO 53 0 min 0,000 mm 1,0 UV-I 174 W/m -1,0 C -2,4 C 30,6 km/h (5 Bft)
16.03.2016 10:35 3,9 C 70 % 1028,2 hPa 0,0 l/m 18,3 km/h (3 Bft) O-NO 63 0 min 0,000 mm 1,0 UV-I 143 W/m -1,1 C -3,9 C 37,0 km/h (5 Bft)
16.03.2016 10:40 3,9 C 70 % 1028,3 hPa 0,0 l/m 11,6 km/h (2 Bft) NO 51 0 min 0,000 mm 1,0 UV-I 155 W/m -1,1 C -0,3 C 40,2 km/h (6 Bft)
16.03.2016 10:45 3,9 C 70 % 1028,3 hPa 0,0 l/m 14,4 km/h (3 Bft) NO 44 0 min 0,000 mm 1,1 UV-I 194 W/m -1,1 C -1,9 C 27,4 km/h (4 Bft)
16.03.2016 10:50 3,9 C 70 % 1028,3 hPa 0,0 l/m 16,9 km/h (3 Bft) NO 46 0 min 0,000 mm 1,1 UV-I 194 W/m -1,1 C -3,2 C 35,4 km/h (5 Bft)
16.03.2016 10:55 4,2 C 69 % 1028,3 hPa 0,0 l/m 15,0 km/h (3 Bft) N-NO 26 0 min 0,000 mm 1,4 UV-I 273 W/m -1,0 C -1,9 C 30,6 km/h (5 Bft)
16.03.2016 11:00 4,7 C 68 % 1028,2 hPa 0,0 l/m 12,5 km/h (3 Bft) O-NO 75 5 min 0,000 mm 1,5 UV-I 370 W/m -0,7 C 0,1 C 33,8 km/h (5 Bft)
16.03.2016 11:05 5,1 C 67 % 1028,2 hPa 0,0 l/m 9,7 km/h (2 Bft) O-NO 60 0 min 0,127 mm 1,6 UV-I 312 W/m -0,5 C 2,4 C 20,9 km/h (4 Bft)
16.03.2016 11:10 5,3 C 65 % 1028,1 hPa 0,0 l/m 19,9 km/h (4 Bft) SO 132 5 min 0,000 mm 1,9 UV-I 560 W/m -0,7 C -2,7 C 41,8 km/h (6 Bft)
16.03.2016 11:15 5,5 C 63 % 1028,3 hPa 0,0 l/m 16,3 km/h (3 Bft) O-NO 61 5 min 0,000 mm 1,7 UV-I 577 W/m -1,0 C -0,9 C 37,0 km/h (5 Bft)
16.03.2016 11:20 5,3 C 64 % 1028,2 hPa 0,0 l/m 14,9 km/h (3 Bft) NO 35 5 min 0,000 mm 1,8 UV-I 485 W/m -0,9 C -0,5 C 33,8 km/h (5 Bft)
16.03.2016 11:25 5,2 C 63 % 1028,2 hPa 0,0 l/m 15,4 km/h (3 Bft) NO 37 5 min 0,000 mm 1,7 UV-I 557 W/m -1,3 C -0,9 C 35,4 km/h (5 Bft)
16.03.2016 11:30 5,1 C 63 % 1028,3 hPa 0,0 l/m 18,5 km/h (3 Bft) NO 41 0 min 0,000 mm 1,5 UV-I 279 W/m -1,4 C -2,4 C 35,4 km/h (5 Bft)
16.03.2016 11:35 4,9 C 63 % 1028,3 hPa 0,0 l/m 20,1 km/h (4 Bft) O-NO 59 0 min 0,000 mm 1,7 UV-I 297 W/m -1,5 C -3,3 C 35,4 km/h (5 Bft)
16.03.2016 11:40 5,1 C 63 % 1028,3 hPa 0,0 l/m 16,6 km/h (3 Bft) O-NO 59 0 min 0,000 mm 1,5 UV-I 278 W/m -1,4 C -1,6 C 33,8 km/h (5 Bft)
16.03.2016 11:45 5,3 C 64 % 1028,4 hPa 0,0 l/m 11,9 km/h (2 Bft) NO 39 5 min 0,000 mm 1,8 UV-I 368 W/m -0,9 C 1,2 C 24,1 km/h (4 Bft)
16.03.2016 11:50 5,8 C 63 % 1028,4 hPa 0,0 l/m 8,9 km/h (2 Bft) NO 51 5 min 0,000 mm 1,6 UV-I 379 W/m -0,7 C 3,7 C 29,0 km/h (5 Bft)
16.03.2016 11:55 5,4 C 61 % 1028,4 hPa 0,0 l/m 15,1 km/h (3 Bft) NO 52 0 min 0,000 mm 1,4 UV-I 219 W/m -1,5 C -0,5 C 30,6 km/h (5 Bft)
16.03.2016 12:00 4,8 C 63 % 1028,3 hPa 0,0 l/m 13,6 km/h (3 Bft) N 11 0 min 0,000 mm 1,1 UV-I 164 W/m -1,6 C -0,4 C 29,0 km/h (5 Bft)
16.03.2016 12:05 4,7 C 64 % 1028,1 hPa 0,0 l/m 15,2 km/h (3 Bft) NO 49 0 min 0,178 mm 1,1 UV-I 213 W/m -1,5 C -1,4 C 35,4 km/h (5 Bft)
16.03.2016 12:10 4,8 C 65 % 1028,2 hPa 0,0 l/m 10,4 km/h (2 Bft) NO 45 0 min 0,000 mm 1,5 UV-I 283 W/m -1,2 C 1,6 C 22,5 km/h (4 Bft)
16.03.2016 12:15 5,1 C 62 % 1028,3 hPa 0,0 l/m 16,8 km/h (3 Bft) O-NO 62 0 min 0,000 mm 1,6 UV-I 245 W/m -1,6 C -1,7 C 35,4 km/h (5 Bft)
16.03.2016 12:20 4,8 C 63 % 1028,2 hPa 0,0 l/m 16,3 km/h (3 Bft) O-NO 62 0 min 0,000 mm 1,6 UV-I 280 W/m -1,6 C -1,8 C 41,8 km/h (6 Bft)
16.03.2016 12:25 5,4 C 62 % 1028,1 hPa 0,0 l/m 16,1 km/h (3 Bft) NO 44 5 min 0,000 mm 2,0 UV-I 427 W/m -1,3 C -1,0 C 27,4 km/h (4 Bft)
16.03.2016 12:30 5,6 C 63 % 1028,1 hPa 0,0 l/m 14,9 km/h (3 Bft) NO 41 5 min 0,000 mm 1,8 UV-I 502 W/m -0,9 C -0,1 C 33,8 km/h (5 Bft)
16.03.2016 12:35 5,6 C 61 % 1028,3 hPa 0,0 l/m 13,3 km/h (3 Bft) NO 51 0 min 0,000 mm 1,6 UV-I 241 W/m -1,3 C 0,7 C 38,6 km/h (5 Bft)
16.03.2016 12:40 5,8 C 61 % 1028,2 hPa 0,0 l/m 21,9 km/h (4 Bft) NO 35 5 min 0,000 mm 2,2 UV-I 626 W/m -1,1 C -2,8 C 37,0 km/h (5 Bft)
16.03.2016 12:45 5,6 C 60 % 1028,2 hPa 0,0 l/m 24,4 km/h (4 Bft) NO 51 5 min 0,000 mm 1,8 UV-I 462 W/m -1,5 C -3,9 C 45,1 km/h (6 Bft)
16.03.2016 12:50 5,4 C 63 % 1028,2 hPa 0,0 l/m 17,1 km/h (3 Bft) O-NO 63 0 min 0,000 mm 1,7 UV-I 273 W/m -1,1 C -1,4 C 30,6 km/h (5 Bft)
16.03.2016 12:55 5,6 C 62 % 1028,1 hPa 0,0 l/m 14,3 km/h (3 Bft) N-NO 15 5 min 0,000 mm 1,6 UV-I 363 W/m -1,1 C 0,2 C 37,0 km/h (5 Bft)
16.03.2016 13:00 5,9 C 62 % 1028,1 hPa 0,0 l/m 8,1 km/h (2 Bft) N-NO 23 0 min 0,000 mm 1,5 UV-I 300 W/m -0,8 C 4,5 C 19,3 km/h (3 Bft)
16.03.2016 13:05 5,5 C 62 % 1028,1 hPa 0,0 l/m 15,9 km/h (3 Bft) NO 45 0 min 0,203 mm 1,6 UV-I 336 W/m -1,2 C -0,8 C 32,2 km/h (5 Bft)
16.03.2016 13:10 5,6 C 64 % 1028,2 hPa 0,0 l/m 10,2 km/h (2 Bft) NO 41 5 min 0,000 mm 1,6 UV-I 340 W/m -0,7 C 2,6 C 29,0 km/h (5 Bft)
16.03.2016 13:15 5,7 C 63 % 1028,2 hPa 0,0 l/m 12,9 km/h (3 Bft) O-NO 67 5 min 0,000 mm 1,6 UV-I 435 W/m -0,8 C 1,0 C 27,4 km/h (4 Bft)
16.03.2016 13:20 5,7 C 62 % 1028,0 hPa 0,0 l/m 13,5 km/h (3 Bft) N-NO 20 5 min 0,000 mm 1,6 UV-I 368 W/m -1,0 C 0,7 C 32,2 km/h (5 Bft)
16.03.2016 13:25 5,4 C 63 % 1027,9 hPa 0,0 l/m 15,2 km/h (3 Bft) O-NO 60 0 min 0,000 mm 1,3 UV-I 239 W/m -1,1 C -0,5 C 29,0 km/h (5 Bft)
16.03.2016 13:30 5,4 C 62 % 1028,1 hPa 0,0 l/m 13,8 km/h (3 Bft) NO 36 0 min 0,000 mm 1,4 UV-I 271 W/m -1,3 C 0,2 C 35,4 km/h (5 Bft)
16.03.2016 13:35 5,3 C 63 % 1028,1 hPa 0,0 l/m 15,6 km/h (3 Bft) NO 37 0 min 0,000 mm 1,3 UV-I 249 W/m -1,2 C -0,9 C 37,0 km/h (5 Bft)
16.03.2016 13:40 5,2 C 63 % 1028,0 hPa 0,0 l/m 10,8 km/h (2 Bft) NO 41 0 min 0,000 mm 1,2 UV-I 227 W/m -1,3 C 1,7 C 25,7 km/h (4 Bft)
16.03.2016 13:45 5,3 C 64 % 1028,0 hPa 0,0 l/m 11,0 km/h (2 Bft) O-NO 57 0 min 0,000 mm 1,3 UV-I 230 W/m -0,9 C 1,7 C 27,4 km/h (4 Bft)
16.03.2016 13:50 5,3 C 62 % 1028,0 hPa 0,0 l/m 14,5 km/h (3 Bft) O 79 0 min 0,000 mm 1,4 UV-I 226 W/m -1,4 C -0,3 C 37,0 km/h (5 Bft)
16.03.2016 13:55 5,1 C 64 % 1028,2 hPa 0,0 l/m 11,7 km/h (2 Bft) O 89 0 min 0,000 mm 1,3 UV-I 198 W/m -1,1 C 1,1 C 33,8 km/h (5 Bft)
16.03.2016 14:00 4,9 C 64 % 1028,3 hPa 0,0 l/m 14,7 km/h (3 Bft) N-NO 22 0 min 0,000 mm 1,0 UV-I 158 W/m -1,3 C -0,9 C 33,8 km/h (5 Bft)
16.03.2016 14:05 4,8 C 65 % 1028,1 hPa 0,0 l/m 12,1 km/h (2 Bft) NO 39 0 min 0,153 mm 0,7 UV-I 121 W/m -1,2 C 0,5 C 30,6 km/h (5 Bft)
16.03.2016 14:10 4,7 C 65 % 1028,0 hPa 0,0 l/m 16,2 km/h (3 Bft) O-NO 75 0 min 0,000 mm 0,5 UV-I 100 W/m -1,3 C -1,9 C 35,4 km/h (5 Bft)
16.03.2016 14:15 4,7 C 65 % 1028,1 hPa 0,0 l/m 14,8 km/h (3 Bft) NO 41 0 min 0,000 mm 0,7 UV-I 118 W/m -1,3 C -1,2 C 29,0 km/h (5 Bft)
16.03.2016 14:20 4,7 C 65 % 1028,1 hPa 0,0 l/m 9,5 km/h (2 Bft) O-NO 59 0 min 0,000 mm 0,7 UV-I 129 W/m -1,3 C 2,1 C 27,4 km/h (4 Bft)
16.03.2016 14:25 4,8 C 65 % 1028,0 hPa 0,0 l/m 7,4 km/h (2 Bft) O-NO 70 0 min 0,000 mm 0,6 UV-I 120 W/m -1,2 C 3,9 C 30,6 km/h (5 Bft)
16.03.2016 14:30 5,0 C 64 % 1027,9 hPa 0,0 l/m 12,7 km/h (3 Bft) NO 53 0 min 0,000 mm 1,0 UV-I 186 W/m -1,2 C 0,3 C 25,7 km/h (4 Bft)
16.03.2016 14:35 5,2 C 65 % 1027,8 hPa 0,0 l/m 9,2 km/h (2 Bft) NO 44 0 min 0,000 mm 1,2 UV-I 215 W/m -0,8 C 2,9 C 29,0 km/h (5 Bft)
16.03.2016 14:40 5,3 C 63 % 1027,9 hPa 0,0 l/m 8,1 km/h (2 Bft) NO 47 0 min 0,000 mm 1,0 UV-I 167 W/m -1,2 C 3,8 C 30,6 km/h (5 Bft)
16.03.2016 14:45 5,3 C 63 % 1027,9 hPa 0,0 l/m 13,5 km/h (3 Bft) O-NO 68 0 min 0,000 mm 0,9 UV-I 169 W/m -1,2 C 0,2 C 35,4 km/h (5 Bft)
16.03.2016 14:50 5,3 C 64 % 1027,8 hPa 0,0 l/m 9,8 km/h (2 Bft) O-NO 61 0 min 0,000 mm 0,7 UV-I 133 W/m -0,9 C 2,5 C 22,5 km/h (4 Bft)
16.03.2016 14:55 5,3 C 64 % 1027,9 hPa 0,0 l/m 10,7 km/h (2 Bft) N-NO 14 0 min 0,000 mm 0,8 UV-I 178 W/m -0,9 C 1,9 C 20,9 km/h (4 Bft)
16.03.2016 15:00 5,6 C 63 % 1027,8 hPa 0,0 l/m 15,2 km/h (3 Bft) NO 44 0 min 0,000 mm 0,9 UV-I 239 W/m -0,9 C -0,3 C 35,4 km/h (5 Bft)
16.03.2016 15:05 6,5 C 61 % 1027,8 hPa 0,0 l/m 8,8 km/h (2 Bft) O-SO 118 5 min 0,101 mm 1,3 UV-I 563 W/m -0,5 C 4,6 C 20,9 km/h (4 Bft)
16.03.2016 15:10 6,6 C 60 % 1027,8 hPa 0,0 l/m 12,8 km/h (3 Bft) O-NO 66 5 min 0,000 mm 1,1 UV-I 353 W/m -0,6 C 2,1 C 35,4 km/h (5 Bft)
16.03.2016 15:15 6,4 C 58 % 1027,7 hPa 0,0 l/m 14,9 km/h (3 Bft) NO 56 5 min 0,000 mm 1,1 UV-I 318 W/m -1,2 C 0,8 C 29,0 km/h (5 Bft)
16.03.2016 15:20 6,5 C 59 % 1027,7 hPa 0,0 l/m 17,1 km/h (3 Bft) O 79 5 min 0,000 mm 1,2 UV-I 501 W/m -0,9 C -0,1 C 29,0 km/h (5 Bft)
16.03.2016 15:25 7,1 C 59 % 1027,7 hPa 0,0 l/m 9,5 km/h (2 Bft) NO 56 5 min 0,000 mm 1,2 UV-I 492 W/m -0,4 C 4,7 C 33,8 km/h (5 Bft)
16.03.2016 15:30 7,0 C 56 % 1027,6 hPa 0,0 l/m 16,7 km/h (3 Bft) NO 34 5 min 0,000 mm 1,1 UV-I 499 W/m -1,2 C 0,7 C 33,8 km/h (5 Bft)
16.03.2016 15:35 7,1 C 56 % 1027,7 hPa 0,0 l/m 13,3 km/h (3 Bft) NO 51 5 min 0,000 mm 1,1 UV-I 479 W/m -1,1 C 2,5 C 24,1 km/h (4 Bft)
16.03.2016 15:40 6,8 C 57 % 1027,6 hPa 0,0 l/m 15,5 km/h (3 Bft) O-NO 69 5 min 0,000 mm 1,0 UV-I 472 W/m -1,1 C 1,0 C 33,8 km/h (5 Bft)
16.03.2016 15:45 7,2 C 56 % 1027,5 hPa 0,0 l/m 12,3 km/h (3 Bft) O-NO 78 5 min 0,000 mm 0,9 UV-I 430 W/m -1,0 C 3,1 C 30,6 km/h (5 Bft)
16.03.2016 15:50 6,9 C 56 % 1027,5 hPa 0,0 l/m 18,0 km/h (3 Bft) O-NO 68 5 min 0,000 mm 0,9 UV-I 431 W/m -1,3 C 0,1 C 41,8 km/h (6 Bft)
16.03.2016 15:55 6,7 C 55 % 1027,5 hPa 0,0 l/m 20,4 km/h (4 Bft) N-NO 31 5 min 0,000 mm 0,9 UV-I 422 W/m -1,7 C -1,1 C 40,2 km/h (6 Bft)
16.03.2016 16:00 6,9 C 55 % 1027,6 hPa 0,0 l/m 15,6 km/h (3 Bft) O-NO 57 5 min 0,000 mm 0,8 UV-I 428 W/m -1,5 C 1,1 C 38,6 km/h (5 Bft)
16.03.2016 16:05 7,1 C 56 % 1027,6 hPa 0,0 l/m 16,1 km/h (3 Bft) O 94 5 min 0,254 mm 0,8 UV-I 425 W/m -1,1 C 1,1 C 27,4 km/h (4 Bft)
16.03.2016 16:10 7,1 C 56 % 1027,6 hPa 0,0 l/m 17,0 km/h (3 Bft) N-NO 25 5 min 0,000 mm 0,8 UV-I 401 W/m -1,1 C 0,7 C 38,6 km/h (5 Bft)
16.03.2016 16:15 7,2 C 55 % 1027,7 hPa 0,0 l/m 14,9 km/h (3 Bft) N-NO 28 5 min 0,000 mm 0,7 UV-I 346 W/m -1,2 C 1,8 C 32,2 km/h (5 Bft)
16.03.2016 16:20 7,2 C 54 % 1027,5 hPa 0,0 l/m 10,6 km/h (2 Bft) O-NO 57 5 min 0,000 mm 0,7 UV-I 321 W/m -1,5 C 4,1 C 24,1 km/h (4 Bft)
16.03.2016 16:25 7,1 C 54 % 1027,6 hPa 0,0 l/m 16,6 km/h (3 Bft) O-NO 69 5 min 0,000 mm 0,7 UV-I 313 W/m -1,6 C 0,9 C 38,6 km/h (5 Bft)
16.03.2016 16:30 6,7 C 55 % 1027,6 hPa 0,0 l/m 19,4 km/h (3 Bft) O-NO 61 5 min 0,000 mm 0,6 UV-I 309 W/m -1,7 C -0,7 C 35,4 km/h (5 Bft)
16.03.2016 16:35 6,4 C 56 % 1027,5 hPa 0,0 l/m 17,6 km/h (3 Bft) O 90 0 min 0,000 mm 0,5 UV-I 160 W/m -1,7 C -0,4 C 37,0 km/h (5 Bft)
16.03.2016 16:40 6,3 C 58 % 1027,6 hPa 0,0 l/m 9,7 km/h (2 Bft) NO 46 0 min 0,000 mm 0,5 UV-I 113 W/m -1,3 C 3,7 C 24,1 km/h (4 Bft)
16.03.2016 16:45 6,4 C 56 % 1027,6 hPa 0,0 l/m 15,5 km/h (3 Bft) NO 40 5 min 0,000 mm 0,5 UV-I 244 W/m -1,7 C 0,5 C 35,4 km/h (5 Bft)
16.03.2016 16:50 6,3 C 57 % 1027,6 hPa 0,0 l/m 14,4 km/h (3 Bft) O-NO 60 5 min 0,000 mm 0,5 UV-I 165 W/m -1,6 C 0,9 C 30,6 km/h (5 Bft)
16.03.2016 16:55 6,2 C 57 % 1027,7 hPa 0,0 l/m 17,2 km/h (3 Bft) NO 40 0 min 0,000 mm 0,3 UV-I 136 W/m -1,7 C -0,5 C 35,4 km/h (5 Bft)
16.03.2016 17:00 6,3 C 57 % 1027,6 hPa 0,0 l/m 12,4 km/h (3 Bft) NO 46 5 min 0,000 mm 0,1 UV-I 190 W/m -1,6 C 2,0 C 27,4 km/h (4 Bft)
16.03.2016 17:05 6,3 C 57 % 1027,7 hPa 0,0 l/m 13,5 km/h (3 Bft) N-NW 333 5 min 0,178 mm 0,0 UV-I 161 W/m -1,6 C 1,4 C 29,0 km/h (5 Bft)
16.03.2016 17:10 6,3 C 57 % 1027,8 hPa 0,0 l/m 15,0 km/h (3 Bft) O 88 5 min 0,000 mm 0,0 UV-I 158 W/m -1,6 C 0,7 C 29,0 km/h (5 Bft)
16.03.2016 17:15 6,2 C 57 % 1027,8 hPa 0,0 l/m 15,2 km/h (3 Bft) N 5 5 min 0,000 mm 0,0 UV-I 151 W/m -1,7 C 0,4 C 25,7 km/h (4 Bft)
16.03.2016 17:20 6,2 C 57 % 1027,7 hPa 0,0 l/m 16,6 km/h (3 Bft) NO 42 5 min 0,000 mm 0,0 UV-I 141 W/m -1,7 C -0,2 C 30,6 km/h (5 Bft)
16.03.2016 17:25 6,1 C 57 % 1027,7 hPa 0,0 l/m 15,7 km/h (3 Bft) N-NO 24 5 min 0,000 mm 0,0 UV-I 125 W/m -1,8 C 0,1 C 29,0 km/h (5 Bft)
16.03.2016 17:30 6,1 C 58 % 1027,7 hPa 0,0 l/m 14,2 km/h (3 Bft) NO 36 5 min 0,000 mm 0,0 UV-I 109 W/m -1,5 C 0,8 C 24,1 km/h (4 Bft)
16.03.2016 17:35 6,1 C 58 % 1027,7 hPa 0,0 l/m 7,2 km/h (2 Bft) O-NO 66 5 min 0,000 mm 0,0 UV-I 93 W/m -1,5 C 5,4 C 24,1 km/h (4 Bft)
16.03.2016 17:40 6,1 C 59 % 1027,8 hPa 0,0 l/m 8,2 km/h (2 Bft) N-NO 19 5 min 0,000 mm 0,0 UV-I 86 W/m -1,3 C 4,6 C 24,1 km/h (4 Bft)
16.03.2016 17:45 6,2 C 59 % 1027,8 hPa 0,0 l/m 6,7 km/h (2 Bft) NO 39 5 min 0,000 mm 0,0 UV-I 73 W/m -1,2 C 6,0 C 17,7 km/h (3 Bft)
16.03.2016 17:50 6,1 C 59 % 1027,8 hPa 0,0 l/m 6,6 km/h (2 Bft) O-NO 78 5 min 0,000 mm 0,0 UV-I 61 W/m -1,3 C 6,0 C 20,9 km/h (4 Bft)
16.03.2016 17:55 5,9 C 59 % 1027,9 hPa 0,0 l/m 4,6 km/h (1 Bft) NO 43 0 min 0,000 mm 0,0 UV-I 49 W/m -1,5 C 5,9 C 17,7 km/h (3 Bft)
16.03.2016 18:00 5,8 C 60 % 1027,8 hPa 0,0 l/m 7,7 km/h (2 Bft) N-NO 31 0 min 0,000 mm 0,0 UV-I 38 W/m -1,4 C 4,7 C 24,1 km/h (4 Bft)
16.03.2016 18:05 5,7 C 60 % 1027,9 hPa 0,0 l/m 5,8 km/h (2 Bft) NO 47 0 min 0,076 mm 0,0 UV-I 30 W/m -1,4 C 5,7 C 19,3 km/h (3 Bft)
16.03.2016 18:10 5,6 C 61 % 1028,0 hPa 0,0 l/m 3,6 km/h (1 Bft) O 91 0 min 0,000 mm 0,0 UV-I 25 W/m -1,3 C 5,6 C 14,5 km/h (3 Bft)
16.03.2016 18:15 5,5 C 61 % 1028,0 hPa 0,0 l/m 6,2 km/h (2 Bft) NO 46 0 min 0,000 mm 0,0 UV-I 18 W/m -1,4 C 5,5 C 16,1 km/h (3 Bft)
16.03.2016 18:20 5,4 C 61 % 1028,0 hPa 0,0 l/m 6,2 km/h (2 Bft) NO 36 5 min 0,000 mm 0,0 UV-I 14 W/m -1,5 C 5,4 C 17,7 km/h (3 Bft)
16.03.2016 18:25 5,3 C 62 % 1028,1 hPa 0,0 l/m 3,6 km/h (1 Bft) O-NO 63 0 min 0,000 mm 0,0 UV-I 11 W/m -1,4 C 5,3 C 22,5 km/h (4 Bft)
16.03.2016 18:30 5,3 C 62 % 1028,1 hPa 0,0 l/m 8,2 km/h (2 Bft) O-NO 60 0 min 0,000 mm 0,0 UV-I 7 W/m -1,4 C 3,8 C 19,3 km/h (3 Bft)
16.03.2016 18:35 5,2 C 63 % 1028,0 hPa 0,0 l/m 4,3 km/h (1 Bft) O-NO 62 0 min 0,000 mm 0,0 UV-I 4 W/m -1,3 C 5,2 C 17,7 km/h (3 Bft)
16.03.2016 18:40 5,1 C 63 % 1028,1 hPa 0,0 l/m 6,7 km/h (2 Bft) N 355 0 min 0,000 mm 0,0 UV-I 0 W/m -1,4 C 4,9 C 17,7 km/h (3 Bft)
16.03.2016 18:45 4,9 C 64 % 1028,2 hPa 0,0 l/m 5,3 km/h (1 Bft) N 360 0 min 0,000 mm 0,0 UV-I 0 W/m -1,3 C 4,9 C 16,1 km/h (3 Bft)
16.03.2016 18:50 4,9 C 64 % 1028,2 hPa 0,0 l/m 7,8 km/h (2 Bft) N-NO 29 0 min 0,000 mm 0,0 UV-I 0 W/m -1,3 C 3,7 C 24,1 km/h (4 Bft)
16.03.2016 18:55 4,8 C 64 % 1028,2 hPa 0,0 l/m 7,5 km/h (2 Bft) NO 43 0 min 0,000 mm 0,0 UV-I 0 W/m -1,4 C 3,8 C 20,9 km/h (4 Bft)
16.03.2016 19:00 4,8 C 64 % 1028,3 hPa 0,0 l/m 5,1 km/h (1 Bft) N 5 0 min 0,000 mm 0,0 UV-I 0 W/m -1,4 C 4,8 C 14,5 km/h (3 Bft)
16.03.2016 19:05 4,7 C 65 % 1028,2 hPa 0,0 l/m 5,8 km/h (2 Bft) O-NO 64 0 min 0,026 mm 0,0 UV-I 0 W/m -1,3 C 4,7 C 14,5 km/h (3 Bft)
16.03.2016 19:10 4,7 C 65 % 1028,2 hPa 0,0 l/m 5,3 km/h (1 Bft) O 94 0 min 0,000 mm 0,0 UV-I 0 W/m -1,3 C 4,7 C 16,1 km/h (3 Bft)
16.03.2016 19:15 4,6 C 65 % 1028,3 hPa 0,0 l/m 3,4 km/h (1 Bft) N-NO 15 0 min 0,000 mm 0,0 UV-I 0 W/m -1,4 C 4,6 C 16,1 km/h (3 Bft)
16.03.2016 19:20 4,6 C 65 % 1028,4 hPa 0,0 l/m 3,3 km/h (1 Bft) O 80 0 min 0,000 mm 0,0 UV-I 0 W/m -1,4 C 4,6 C 17,7 km/h (3 Bft)
16.03.2016 19:25 4,7 C 65 % 1028,5 hPa 0,0 l/m 5,2 km/h (1 Bft) O-NO 58 0 min 0,000 mm 0,0 UV-I 0 W/m -1,3 C 4,7 C 17,7 km/h (3 Bft)
16.03.2016 19:30 4,6 C 66 % 1028,6 hPa 0,0 l/m 5,5 km/h (1 Bft) NO 47 0 min 0,000 mm 0,0 UV-I 0 W/m -1,2 C 4,6 C 19,3 km/h (3 Bft)
16.03.2016 19:35 4,6 C 66 % 1028,6 hPa 0,0 l/m 8,4 km/h (2 Bft) O-NO 77 0 min 0,000 mm 0,0 UV-I 0 W/m -1,2 C 2,9 C 24,1 km/h (4 Bft)
16.03.2016 19:40 4,6 C 66 % 1028,6 hPa 0,0 l/m 5,2 km/h (1 Bft) NO 42 0 min 0,000 mm 0,0 UV-I 0 W/m -1,2 C 4,6 C 20,9 km/h (4 Bft)
16.03.2016 19:45 4,4 C 67 % 1028,6 hPa 0,0 l/m 4,9 km/h (1 Bft) NO 55 0 min 0,000 mm 0,0 UV-I 0 W/m -1,2 C 4,4 C 14,5 km/h (3 Bft)
16.03.2016 19:50 4,4 C 67 % 1028,6 hPa 0,0 l/m 1,9 km/h (1 Bft) O-NO 69 0 min 0,000 mm 0,0 UV-I 0 W/m -1,2 C 4,4 C 9,7 km/h (2 Bft)
16.03.2016 19:55 4,4 C 68 % 1028,6 hPa 0,0 l/m 1,6 km/h (1 Bft) NO 55 0 min 0,000 mm 0,0 UV-I 0 W/m -1,0 C 4,4 C 11,3 km/h (2 Bft)
16.03.2016 20:00 4,4 C 68 % 1028,6 hPa 0,0 l/m 3,0 km/h (1 Bft) NO 34 0 min 0,000 mm 0,0 UV-I 0 W/m -1,0 C 4,4 C 12,9 km/h (3 Bft)
16.03.2016 20:05 4,6 C 68 % 1028,6 hPa 0,0 l/m 9,5 km/h (2 Bft) O-NO 65 0 min 0,025 mm 0,0 UV-I 0 W/m -0,8 C 2,0 C 20,9 km/h (4 Bft)
16.03.2016 20:10 4,6 C 68 % 1028,8 hPa 0,0 l/m 7,4 km/h (2 Bft) O 91 0 min 0,000 mm 0,0 UV-I 0 W/m -0,8 C 3,7 C 20,9 km/h (4 Bft)
16.03.2016 20:15 4,5 C 68 % 1028,9 hPa 0,0 l/m 2,7 km/h (1 Bft) O-NO 63 0 min 0,000 mm 0,0 UV-I 0 W/m -0,9 C 4,5 C 14,5 km/h (3 Bft)
16.03.2016 20:20 4,4 C 68 % 1028,9 hPa 0,0 l/m 5,5 km/h (1 Bft) NO 55 0 min 0,000 mm 0,0 UV-I 0 W/m -1,0 C 4,4 C 16,1 km/h (3 Bft)
16.03.2016 20:25 4,4 C 68 % 1028,9 hPa 0,0 l/m 2,4 km/h (1 Bft) O 84 0 min 0,000 mm 0,0 UV-I 0 W/m -1,0 C 4,4 C 11,3 km/h (2 Bft)
16.03.2016 20:30 4,3 C 69 % 1028,9 hPa 0,0 l/m 4,5 km/h (1 Bft) O-NO 73 0 min 0,000 mm 0,0 UV-I 0 W/m -0,9 C 4,3 C 17,7 km/h (3 Bft)
16.03.2016 20:35 4,3 C 69 % 1028,8 hPa 0,0 l/m 6,9 km/h (2 Bft) N-NO 28 0 min 0,000 mm 0,0 UV-I 0 W/m -0,9 C 3,9 C 16,1 km/h (3 Bft)
16.03.2016 20:40 4,3 C 69 % 1028,9 hPa 0,0 l/m 4,0 km/h (1 Bft) N-NO 29 0 min 0,000 mm 0,0 UV-I 0 W/m -0,9 C 4,3 C 14,5 km/h (3 Bft)
16.03.2016 20:45 4,3 C 69 % 1029,1 hPa 0,0 l/m 1,0 km/h (0 Bft) O-NO 61 0 min 0,000 mm 0,0 UV-I 0 W/m -0,9 C 4,3 C 11,3 km/h (2 Bft)
16.03.2016 20:50 4,2 C 70 % 1029,0 hPa 0,0 l/m 4,0 km/h (1 Bft) NO 44 0 min 0,000 mm 0,0 UV-I 0 W/m -0,8 C 4,2 C 11,3 km/h (2 Bft)
16.03.2016 20:55 4,3 C 70 % 1028,9 hPa 0,0 l/m 5,0 km/h (1 Bft) O 87 0 min 0,000 mm 0,0 UV-I 0 W/m -0,7 C 4,3 C 14,5 km/h (3 Bft)
16.03.2016 21:00 4,3 C 70 % 1029,0 hPa 0,0 l/m 3,1 km/h (1 Bft) NO 39 0 min 0,000 mm 0,0 UV-I 0 W/m -0,7 C 4,3 C 17,7 km/h (3 Bft)
16.03.2016 21:05 4,2 C 70 % 1029,1 hPa 0,0 l/m 2,5 km/h (1 Bft) O-NO 67 0 min 0,025 mm 0,0 UV-I 0 W/m -0,8 C 4,2 C 12,9 km/h (3 Bft)
16.03.2016 21:10 4,2 C 70 % 1029,1 hPa 0,0 l/m 0,0 km/h (0 Bft) O-NO 59 0 min 0,000 mm 0,0 UV-I 0 W/m -0,8 C 4,2 C 0,0 km/h (0 Bft)
16.03.2016 21:15 4,0 C 70 % 1029,1 hPa 0,0 l/m 2,2 km/h (1 Bft) NO 55 0 min 0,000 mm 0,0 UV-I 0 W/m -1,0 C 4,0 C 8,0 km/h (2 Bft)
16.03.2016 21:20 3,9 C 71 % 1029,1 hPa 0,0 l/m 5,7 km/h (1 Bft) O-NO 57 0 min 0,000 mm 0,0 UV-I 0 W/m -0,9 C 3,9 C 11,3 km/h (2 Bft)
16.03.2016 21:25 3,8 C 71 % 1029,0 hPa 0,0 l/m 7,4 km/h (2 Bft) NO 53 0 min 0,000 mm 0,0 UV-I 0 W/m -1,0 C 2,9 C 16,1 km/h (3 Bft)
16.03.2016 21:30 3,8 C 71 % 1029,0 hPa 0,0 l/m 4,2 km/h (1 Bft) O-NO 59 0 min 0,000 mm 0,0 UV-I 0 W/m -1,0 C 3,8 C 16,1 km/h (3 Bft)
16.03.2016 21:35 3,7 C 71 % 1028,9 hPa 0,0 l/m 7,2 km/h (2 Bft) O-NO 68 0 min 0,000 mm 0,0 UV-I 0 W/m -1,1 C 3,0 C 16,1 km/h (3 Bft)
16.03.2016 21:40 3,6 C 72 % 1028,9 hPa 0,0 l/m 5,6 km/h (1 Bft) O-NO 61 0 min 0,000 mm 0,0 UV-I 0 W/m -1,0 C 3,6 C 12,9 km/h (3 Bft)
16.03.2016 21:45 3,6 C 72 % 1028,9 hPa 0,0 l/m 5,8 km/h (2 Bft) NO 50 0 min 0,000 mm 0,0 UV-I 0 W/m -1,0 C 3,6 C 17,7 km/h (3 Bft)
16.03.2016 21:50 3,7 C 72 % 1028,9 hPa 0,0 l/m 3,5 km/h (1 Bft) O-NO 65 0 min 0,000 mm 0,0 UV-I 0 W/m -0,9 C 3,7 C 16,1 km/h (3 Bft)
16.03.2016 21:55 3,8 C 72 % 1029,1 hPa 0,0 l/m 6,7 km/h (2 Bft) O-NO 61 0 min 0,000 mm 0,0 UV-I 0 W/m -0,8 C 3,5 C 20,9 km/h (4 Bft)
16.03.2016 22:00 3,8 C 72 % 1029,2 hPa 0,0 l/m 4,8 km/h (1 Bft) O-NO 61 0 min 0,000 mm 0,0 UV-I 0 W/m -0,8 C 3,8 C 20,9 km/h (4 Bft)
16.03.2016 22:05 3,9 C 72 % 1029,2 hPa 0,0 l/m 7,4 km/h (2 Bft) NO 42 0 min 0,026 mm 0,0 UV-I 0 W/m -0,7 C 3,0 C 20,9 km/h (4 Bft)
16.03.2016 22:10 3,9 C 72 % 1029,2 hPa 0,0 l/m 8,8 km/h (2 Bft) N-NO 26 0 min 0,000 mm 0,0 UV-I 0 W/m -0,7 C 1,8 C 20,9 km/h (4 Bft)
16.03.2016 22:15 3,8 C 72 % 1029,3 hPa 0,0 l/m 8,4 km/h (2 Bft) NO 51 0 min 0,000 mm 0,0 UV-I 0 W/m -0,8 C 2,0 C 17,7 km/h (3 Bft)
16.03.2016 22:20 3,8 C 72 % 1029,2 hPa 0,0 l/m 10,4 km/h (2 Bft) O 101 0 min 0,000 mm 0,0 UV-I 0 W/m -0,8 C 0,5 C 22,5 km/h (4 Bft)
16.03.2016 22:25 3,8 C 72 % 1029,3 hPa 0,0 l/m 7,4 km/h (2 Bft) NO 40 0 min 0,000 mm 0,0 UV-I 0 W/m -0,8 C 2,9 C 19,3 km/h (3 Bft)
16.03.2016 22:30 3,7 C 72 % 1029,2 hPa 0,0 l/m 6,3 km/h (2 Bft) O 83 0 min 0,000 mm 0,0 UV-I 0 W/m -0,9 C 3,7 C 16,1 km/h (3 Bft)
16.03.2016 22:35 3,7 C 73 % 1029,3 hPa 0,0 l/m 6,5 km/h (2 Bft) O 80 0 min 0,000 mm 0,0 UV-I 0 W/m -0,7 C 3,6 C 16,1 km/h (3 Bft)
16.03.2016 22:40 3,7 C 72 % 1029,4 hPa 0,0 l/m 5,8 km/h (2 Bft) O 98 0 min 0,000 mm 0,0 UV-I 0 W/m -0,9 C 3,7 C 24,1 km/h (4 Bft)
16.03.2016 22:45 3,6 C 73 % 1029,4 hPa 0,0 l/m 1,6 km/h (1 Bft) O-NO 73 0 min 0,000 mm 0,0 UV-I 0 W/m -0,8 C 3,6 C 8,0 km/h (2 Bft)
16.03.2016 22:50 3,6 C 73 % 1029,4 hPa 0,0 l/m 4,9 km/h (1 Bft) O-NO 60 0 min 0,000 mm 0,0 UV-I 0 W/m -0,8 C 3,6 C 12,9 km/h (3 Bft)
16.03.2016 22:55 3,6 C 73 % 1029,4 hPa 0,0 l/m 3,9 km/h (1 Bft) O-NO 59 0 min 0,000 mm 0,0 UV-I 0 W/m -0,8 C 3,6 C 11,3 km/h (2 Bft)
16.03.2016 23:00 3,6 C 73 % 1029,4 hPa 0,0 l/m 2,6 km/h (1 Bft) O-NO 63 0 min 0,000 mm 0,0 UV-I 0 W/m -0,8 C 3,6 C 12,9 km/h (3 Bft)
16.03.2016 23:05 3,4 C 74 % 1029,4 hPa 0,0 l/m 1,0 km/h (0 Bft) O-NO 64 0 min 0,025 mm 0,0 UV-I 0 W/m -0,8 C 3,4 C 8,0 km/h (2 Bft)
16.03.2016 23:10 3,3 C 74 % 1029,4 hPa 0,0 l/m 3,0 km/h (1 Bft) O-NO 71 0 min 0,000 mm 0,0 UV-I 0 W/m -0,9 C 3,3 C 11,3 km/h (2 Bft)
16.03.2016 23:15 3,2 C 75 % 1029,3 hPa 0,0 l/m 1,8 km/h (1 Bft) O-NO 76 0 min 0,000 mm 0,0 UV-I 0 W/m -0,8 C 3,2 C 8,0 km/h (2 Bft)
16.03.2016 23:20 3,0 C 75 % 1029,4 hPa 0,0 l/m 1,6 km/h (1 Bft) O-NO 57 0 min 0,000 mm 0,0 UV-I 0 W/m -1,0 C 3,0 C 8,0 km/h (2 Bft)
16.03.2016 23:25 2,8 C 76 % 1029,3 hPa 0,0 l/m 1,1 km/h (1 Bft) O-NO 63 0 min 0,000 mm 0,0 UV-I 0 W/m -1,0 C 2,8 C 8,0 km/h (2 Bft)
16.03.2016 23:30 2,7 C 76 % 1029,3 hPa 0,0 l/m 0,7 km/h (0 Bft) NO 39 0 min 0,000 mm 0,0 UV-I 0 W/m -1,1 C 2,7 C 6,4 km/h (2 Bft)
16.03.2016 23:35 2,7 C 77 % 1029,2 hPa 0,0 l/m 2,0 km/h (1 Bft) NO 50 0 min 0,000 mm 0,0 UV-I 0 W/m -0,9 C 2,7 C 8,0 km/h (2 Bft)
16.03.2016 23:40 2,6 C 77 % 1029,2 hPa 0,0 l/m 0,3 km/h (0 Bft) NO 53 0 min 0,000 mm 0,0 UV-I 0 W/m -1,0 C 2,6 C 8,0 km/h (2 Bft)
16.03.2016 23:45 2,5 C 78 % 1029,2 hPa 0,0 l/m 0,0 km/h (0 Bft) O-NO 66 0 min 0,000 mm 0,0 UV-I 0 W/m -0,9 C 2,5 C 0,0 km/h (0 Bft)
16.03.2016 23:50 2,4 C 78 % 1029,2 hPa 0,0 l/m 0,1 km/h (0 Bft) O-NO 67 0 min 0,000 mm 0,0 UV-I 0 W/m -1,0 C 2,4 C 1,6 km/h (1 Bft)
16.03.2016 23:55 2,3 C 78 % 1029,2 hPa 0,0 l/m 0,0 km/h (0 Bft) O-NO 78 0 min 0,000 mm 0,0 UV-I 0 W/m -1,1 C 2,3 C 1,6 km/h (1 Bft)
_ Min-Zeit 06:35 16:20 04:40 - 21:10 - - - - - - 05:35 09:55 21:10
Minimum _ 1,6 C 54 % 1026,3 hPa - 0,0 km/h (0 Bft) - - - - - - -2,4 C -4,7 C 0,0 km/h (0 Bft)
_ Max-Zeit 15:30 00:00 22:40 00:00 12:45 - - 07:45 16:05 12:40 12:40 00:00 17:45 12:45
Maximum _ 7,4 C 79 % 1029,4 hPa 0,0 l/m 24,4 km/h
NO (4 Bft)
- - 5 min 0,254 mm 2,2 UV-I 626 W/m 0,2 C 6,0 C 45,1 km/h
O-NO (6 Bft)
Durchschnitt _ 4,0 C 69 % 1027,7 hPa #0,0 l/m 9,3 km/h (2 Bft) O-NO - #4:20 h #1,727 mm 1,1 UV-I 206 W/m -1,3 C 1,4 C 22,6 km/h (4 Bft)